QPF
0.10 0.02 0.00 0.00 0.00 0.00 0.00 0.00 0.00 0.00 0.00 0.00 0.00 0.00 0.00 0.00 0.00 0.01 0.01 0.00 0.00 0.00 0.00 0.00 0.00 0.01 0.02 0.01 0.00 0.00 0.00 0.00 0.00 0.00 0.01 0.01 0.01 0.01 0.01 0.01 0.02 0.02
0.02 0.00 0.00 0.00 0.00 0.00 0.00 0.00 0.00 0.00 0.00 0.00 0.00 0.00 0.00 0.00 0.00 0.00 0.00 0.00 0.00 0.00 0.00 0.00 0.00 0.01 0.01 0.03 0.01 0.00 0.00 0.01 0.01 0.00 0.01 0.01 0.01 0.01 0.01 0.01 0.02 0.02
0.03 0.00 0.00 0.00 0.00 0.00 0.00 0.00 0.00 0.00 0.00 0.00 0.00 0.00 0.00 0.00 0.00 0.00 0.00 0.00 0.00 0.00 0.00 0.00 0.00 0.01 0.01 0.01 0.02 0.01 0.01 0.00 0.00 0.00 0.00 0.00 0.00 0.00 0.01 0.01 0.01 0.02
0.01 0.00 0.00 0.00 0.00 0.00 0.00 0.00 0.00 0.00 0.00 0.00 0.00 0.00 0.00 0.00 0.00 0.00 0.00 0.00 0.00 0.00 0.00 0.00 0.01 0.01 0.01 0.01 0.01 0.02 0.02 0.00 0.00 0.00 0.00 0.00 0.00 0.00 0.00 0.00 0.01 0.01
0.00 0.00 0.00 0.00 0.00 0.00 0.00 0.00 0.00 0.00 0.00 0.00 0.00 0.00 0.00 0.00 0.00 0.00 0.00 0.00 0.00 0.00 0.00 0.00 0.01 0.01 0.01 0.02 0.01 0.01 0.01 0.01 0.00 0.01 0.00 0.00 0.00 0.00 0.00 0.00 0.00 0.01
0.00 0.00 0.00 0.00 0.00 0.00 0.00 0.00 0.00 0.00 0.00 0.00 0.00 0.00 0.00 0.00 0.00 0.00 0.00 0.00 0.00 0.00 0.00 0.00 0.00 0.00 0.01 0.01 0.01 0.00 0.01 0.01 0.01 0.00 0.00 0.01 0.00 0.00 0.00 0.00 0.00 0.00
0.00 0.00 0.00 0.00 0.00 0.00 0.00 0.00 0.00 0.00 0.00 0.00 0.00 0.00 0.00 0.00 0.00 0.00 0.00 0.00 0.00 0.00 0.00 0.00 0.00 0.00 0.00 0.01 0.01 0.00 0.00 0.00 0.00 0.00 0.02 0.02 0.01 0.00 0.00 0.00 0.00 0.00
0.00 0.00 0.00 0.00 0.00 0.00 0.00 0.00 0.00 0.00 0.00 0.00 0.00 0.00 0.00 0.00 0.00 0.00 0.00 0.00 0.00 0.00 0.00 0.00 0.01 0.00 0.00 0.01 0.02 0.00 0.00 0.00 0.00 0.01 0.01 0.01 0.01 0.01 0.01 0.00 0.00 0.00
0.00 0.00 0.00 0.00 0.00 0.00 0.00 0.00 0.00 0.00 0.00 0.00 0.00 0.00 0.00 0.00 0.00 0.00 0.00 0.00 0.00 0.00 0.00 0.00 0.00 0.01 0.00 0.01 0.02 0.02 0.02 0.00 0.00 0.01 0.00 0.01 0.00 0.00 0.01 0.01 0.00 0.00
0.00 0.00 0.00 0.00 0.00 0.00 0.00 0.00 0.00 0.00 0.00 0.00 0.00 0.00 0.00 0.00 0.00 0.00 0.00 0.00 0.00 0.00 0.00 0.00 0.00 0.00 0.00 0.00 0.01 0.01 0.01 0.02 0.01 0.00 0.00 0.00 0.00 0.00 0.00 0.00 0.00 0.02
0.00 0.00 0.00 0.00 0.00 0.00 0.00 0.00 0.00 0.00 0.00 0.00 0.00 0.00 0.00 0.00 0.00 0.00 0.00 0.00 0.00 0.00 0.00 0.00 0.00 0.00 0.00 0.00 0.00 0.00 0.00 0.00 0.00 0.00 0.00 0.00 0.00 0.00 0.00 0.00 0.00 0.00
0.15 0.08 0.01 0.02 0.00 0.00 0.00 0.00 0.00 0.00 0.00 0.00 0.00 0.00 0.00 0.00 0.00 0.00 0.00 0.00 0.00 0.00 0.00 0.00 0.00 0.00 0.00 0.00 0.00 0.00 0.00 0.00 0.00 0.00 0.00 0.00 0.00 0.00 0.00 0.00 0.00 0.00
0.42 0.23 0.08 0.10 0.00 0.00 0.00 0.00 0.00 0.00 0.00 0.00 0.00 0.00 0.00 0.00 0.00 0.00 0.00 0.00 0.00 0.00 0.00 0.00 0.00 0.00 0.00 0.00 0.00 0.00 0.00 0.00 0.00 0.00 0.00 0.00 0.00 0.00 0.00 0.00 0.00 0.00
0.44 0.39 0.35 0.05 0.00 0.00 0.00 0.00 0.00 0.00 0.00 0.00 0.00 0.00 0.00 0.00 0.00 0.00 0.00 0.00 0.00 0.00 0.00 0.00 0.00 0.00 0.00 0.00 0.00 0.00 0.00 0.00 0.00 0.00 0.00 0.00 0.00 0.00 0.00 0.00 0.00 0.00
0.07 0.10 0.08 0.07 0.00 0.00 0.00 0.00 0.00 0.00 0.00 0.00 0.00 0.00 0.00 0.00 0.00 0.00 0.00 0.00 0.00 0.00 0.00 0.00 0.00 0.00 0.00 0.00 0.00 0.00 0.00 0.00 0.00 0.00 0.00 0.00 0.00 0.00 0.00 0.00 0.00 0.00
0.02 0.05 0.05 0.02 0.01 0.03 0.00 0.00 0.00 0.00 0.00 0.00 0.00 0.00 0.00 0.00 0.00 0.00 0.00 0.00 0.00 0.00 0.00 0.00 0.00 0.00 0.00 0.00 0.00 0.00 0.00 0.00 0.00 0.00 0.00 0.00 0.00 0.00 0.00 0.00 0.00 0.00
0.04 0.22 0.23 0.06 0.10 0.03 0.04 0.01 0.00 0.00 0.00 0.00 0.00 0.00 0.00 0.00 0.00 0.00 0.00 0.00 0.00 0.00 0.00 0.00 0.00 0.00 0.00 0.00 0.00 0.00 0.00 0.00 0.00 0.00 0.00 0.00 0.00 0.00 0.00 0.00 0.00 0.00
0.07 0.11 0.15 0.27 0.30 0.21 0.11 0.06 0.04 0.02 0.01 0.00 0.00 0.00 0.00 0.00 0.00 0.00 0.00 0.00 0.00 0.00 0.00 0.00 0.00 0.00 0.00 0.00 0.00 0.00 0.00 0.00 0.00 0.00 0.00 0.00 0.00 0.00 0.00 0.00 0.00 0.00
0.04 0.06 0.28 0.19 0.34 0.13 0.19 0.20 0.15 0.08 0.02 0.01 0.00 0.00 0.00 0.00 0.00 0.00 0.00 0.00 0.00 0.00 0.00 0.00 0.00 0.00 0.00 0.00 0.00 0.00 0.00 0.00 0.00 0.00 0.00 0.00 0.00 0.00 0.00 0.00 0.00 0.00
0.32 0.32 0.20 0.32 0.21 0.12 0.17 0.09 0.05 0.06 0.07 0.03 0.02 0.00 0.00 0.00 0.00 0.00 0.00 0.00 0.00 0.00 0.00 0.00 0.00 0.00 0.00 0.00 0.00 0.00 0.00 0.00 0.00 0.00 0.00 0.00 0.00 0.00 0.00 0.00 0.00 0.00
0.23 0.20 0.29 0.29 0.27 0.25 0.23 0.21 0.19 0.10 0.10 0.14 0.14 0.03 0.00 0.00 0.00 0.00 0.00 0.00 0.00 0.00 0.00 0.00 0.00 0.00 0.00 0.00 0.00 0.00 0.00 0.00 0.00 0.00 0.00 0.00 0.00 0.00 0.00 0.00 0.00 0.00
0.15 0.12 0.22 0.18 0.17 0.18 0.17 0.13 0.09 0.05 0.04 0.04 0.03 0.02 0.01 0.01 0.05 0.00 0.00 0.00 0.00 0.00 0.00 0.00 0.00 0.00 0.00 0.00 0.00 0.00 0.00 0.00 0.00 0.00 0.00 0.00 0.00 0.00 0.00 0.00 0.00 0.00
0.01 0.02 0.01 0.07 0.06 0.04 0.02 0.01 0.01 0.00 0.00 0.00 0.01 0.00 0.00 0.02 0.05 0.04 0.00 0.00 0.00 0.01 0.00 0.00 0.00 0.00 0.00 0.00 0.00 0.00 0.00 0.00 0.00 0.00 0.00 0.00 0.00 0.00 0.00 0.00 0.00 0.00
0.07 0.02 0.05 0.00 0.00 0.00 0.00 0.00 0.00 0.00 0.00 0.00 0.00 0.00 0.03 0.00 0.00 0.02 0.05 0.00 0.00 0.00 0.00 0.00 0.00 0.00 0.00 0.00 0.00 0.00 0.00 0.00 0.00 0.00 0.00 0.00 0.00 0.00 0.00 0.00 0.00 0.00
0.03 0.05 0.00 0.00 0.05 0.03 0.02 0.00 0.00 0.02 0.00 0.00 0.00 0.00 0.00 0.01 0.00 0.00 0.02 0.03 0.01 0.00 0.00 0.00 0.00 0.00 0.00 0.00 0.00 0.00 0.00 0.00 0.00 0.00 0.00 0.00 0.00 0.00 0.00 0.00 0.00 0.00
0.00 0.00 0.00 0.00 0.00 0.01 0.01 0.02 0.03 0.01 0.08 0.00 0.01 0.08 0.04 0.00 0.00 0.00 0.00 0.00 0.00 0.00 0.00 0.00 0.00 0.00 0.00 0.00 0.00 0.00 0.00 0.00 0.00 0.00 0.00 0.00 0.00 0.00 0.00 0.00 0.00 0.00
MSLP
1017.91 1016.51 1016.23 1016.07 1016.15 1016.39 1016.75 1017.03 1017.19 1017.55 1017.83 1017.91 1018.19 1018.43 1018.55 1018.71 1018.87 1019.03 1019.15 1019.27 1019.39 1019.43 1019.51 1019.67 1019.75 1019.87 1019.99 1020.11 1020.23 1020.23 1020.31 1020.51 1020.63 1020.71 1020.91 1021.15 1021.27 1021.43 1021.63 1021.71 1021.75 1021.75
1017.03 1016.23 1015.95 1015.87 1016.15 1016.51 1016.79 1016.99 1017.31 1017.59 1017.83 1017.95 1018.03 1018.27 1018.47 1018.75 1018.99 1019.03 1019.27 1019.39 1019.43 1019.47 1019.51 1019.59 1019.71 1019.75 1019.91 1020.07 1020.27 1020.31 1020.23 1020.51 1020.75 1020.59 1020.95 1021.19 1021.23 1021.39 1021.59 1021.67 1021.79 1021.79
1016.47 1015.91 1015.75 1015.91 1016.27 1016.59 1016.79 1017.03 1017.23 1017.47 1017.79 1017.95 1018.19 1018.35 1018.67 1018.83 1019.07 1019.07 1019.15 1019.23 1019.27 1019.39 1019.51 1019.55 1019.63 1019.63 1019.71 1019.79 1020.07 1020.19 1020.23 1020.51 1020.63 1020.59 1020.79 1020.95 1021.03 1021.15 1021.35 1021.55 1021.63 1021.83
1016.23 1015.71 1015.63 1015.87 1016.19 1016.51 1016.75 1016.99 1017.27 1017.47 1017.75 1018.19 1018.35 1018.43 1018.63 1018.83 1018.99 1019.15 1019.19 1019.23 1019.23 1019.35 1019.39 1019.47 1019.55 1019.55 1019.59 1019.71 1019.99 1020.15 1020.23 1020.31 1020.35 1020.55 1020.75 1020.71 1020.87 1020.99 1021.15 1021.31 1021.43 1021.63
1015.63 1015.51 1015.47 1015.71 1015.95 1016.31 1016.67 1017.03 1017.39 1017.59 1017.83 1017.99 1018.15 1018.31 1018.51 1018.75 1018.95 1019.03 1019.11 1019.19 1019.23 1019.31 1019.35 1019.43 1019.39 1019.51 1019.59 1019.75 1019.87 1020.07 1020.23 1020.27 1020.31 1020.51 1020.63 1020.79 1020.79 1020.91 1021.07 1021.19 1021.39 1021.59
1015.19 1015.27 1015.39 1015.59 1015.95 1016.39 1016.75 1017.07 1017.31 1017.55 1017.75 1017.95 1018.11 1018.11 1018.31 1018.51 1018.63 1018.87 1019.03 1019.15 1019.15 1019.23 1019.31 1019.31 1019.39 1019.47 1019.55 1019.71 1019.87 1019.99 1020.15 1020.19 1020.31 1020.43 1020.55 1020.71 1020.71 1020.75 1020.91 1021.07 1021.31 1021.51
1015.15 1015.31 1015.55 1015.71 1016.15 1016.47 1016.71 1016.95 1017.15 1017.39 1017.59 1017.75 1017.87 1018.15 1018.23 1018.43 1018.55 1018.71 1018.87 1018.99 1019.07 1019.15 1019.19 1019.35 1019.43 1019.55 1019.51 1019.71 1019.83 1019.95 1020.03 1019.99 1020.15 1020.31 1020.43 1020.55 1020.63 1020.83 1020.83 1020.99 1021.07 1021.23
1015.15 1015.35 1015.63 1015.83 1016.23 1016.59 1016.75 1016.91 1017.15 1017.35 1017.51 1017.71 1018.03 1018.15 1018.19 1018.35 1018.43 1018.59 1018.75 1018.83 1018.99 1019.07 1019.19 1019.31 1019.39 1019.35 1019.47 1019.63 1019.87 1019.99 1020.07 1020.03 1020.15 1020.23 1020.43 1020.55 1020.75 1020.91 1020.87 1020.91 1020.99 1021.07
1015.15 1015.43 1015.67 1015.99 1016.31 1016.63 1016.79 1016.87 1017.11 1017.35 1017.51 1017.87 1018.03 1018.19 1018.23 1018.27 1018.35 1018.59 1018.67 1018.79 1018.95 1019.07 1019.15 1019.31 1019.39 1019.51 1019.51 1019.71 1019.83 1019.99 1020.07 1020.15 1020.19 1020.35 1020.55 1020.67 1020.83 1020.83 1020.79 1020.79 1020.95 1021.07
1015.35 1015.47 1015.83 1016.15 1016.43 1016.63 1016.83 1016.87 1017.07 1017.35 1017.55 1017.83 1017.95 1018.11 1018.27 1018.27 1018.39 1018.55 1018.71 1018.79 1018.99 1019.07 1019.19 1019.35 1019.43 1019.59 1019.67 1019.67 1019.83 1019.95 1020.07 1020.19 1020.31 1020.39 1020.39 1020.43 1020.51 1020.51 1020.47 1020.75 1020.95 1021.15
1015.67 1015.75 1016.07 1016.43 1016.59 1016.67 1016.87 1016.99 1017.19 1017.43 1017.63 1017.83 1018.03 1018.23 1018.31 1018.47 1018.55 1018.51 1018.75 1018.83 1019.07 1019.11 1019.19 1019.31 1019.43 1019.51 1019.63 1019.79 1019.87 1019.87 1019.95 1020.15 1020.23 1020.23 1020.31 1020.31 1020.31 1020.35 1020.51 1020.51 1020.79 1020.99
1016.95 1016.63 1016.43 1016.59 1016.55 1016.63 1016.83 1016.95 1017.15 1017.39 1017.67 1017.75 1017.91 1018.15 1018.35 1018.51 1018.59 1018.63 1018.67 1018.83 1018.95 1018.99 1019.07 1019.27 1019.31 1019.47 1019.59 1019.71 1019.79 1019.95 1019.99 1020.03 1020.11 1020.23 1020.27 1020.31 1020.43 1020.39 1020.39 1020.51 1020.67 1020.79
1016.91 1017.39 1017.59 1017.31 1016.79 1016.79 1016.87 1016.99 1017.23 1017.43 1017.63 1017.79 1017.83 1018.07 1018.35 1018.51 1018.59 1018.71 1018.71 1018.71 1018.83 1018.95 1019.11 1019.23 1019.35 1019.47 1019.67 1019.83 1019.87 1019.91 1020.07 1020.23 1020.35 1020.35 1020.43 1020.43 1020.43 1020.43 1020.47 1020.55 1020.59 1020.71
1016.79 1016.83 1017.15 1017.47 1017.43 1017.23 1017.19 1017.23 1017.35 1017.55 1017.59 1017.75 1017.87 1018.11 1018.31 1018.43 1018.63 1018.79 1018.91 1018.87 1019.07 1019.15 1019.19 1019.35 1019.55 1019.75 1019.79 1019.91 1019.87 1020.03 1020.19 1020.35 1020.39 1020.51 1020.47 1020.59 1020.63 1020.59 1020.63 1020.71 1020.79 1020.79
1016.87 1017.07 1017.39 1017.59 1017.71 1017.71 1017.71 1017.75 1017.67 1017.63 1017.75 1017.91 1018.03 1018.15 1018.23 1018.35 1018.55 1018.79 1019.03 1019.15 1019.27 1019.35 1019.47 1019.59 1019.71 1019.75 1019.99 1020.23 1020.07 1020.19 1020.27 1020.43 1020.47 1020.51 1020.59 1020.67 1020.75 1020.71 1020.79 1020.83 1020.83 1020.87
1016.83 1017.11 1017.43 1017.67 1017.87 1018.07 1018.15 1018.15 1018.11 1018.07 1018.11 1018.19 1018.23 1018.31 1018.43 1018.47 1018.67 1018.87 1019.07 1019.27 1019.43 1019.55 1019.75 1019.95 1020.15 1020.67 1021.51 1021.27 1021.07 1020.63 1020.31 1020.27 1020.51 1020.55 1020.59 1020.63 1020.75 1020.79 1020.91 1020.87 1020.87 1020.95
1017.15 1017.47 1017.79 1017.95 1018.03 1018.27 1018.51 1018.63 1018.75 1018.67 1018.55 1018.51 1018.55 1018.63 1018.83 1018.87 1018.95 1019.11 1019.19 1019.23 1019.47 1019.75 1020.03 1020.43 1021.03 1022.11 1022.43 1021.95 1021.59 1021.43 1020.91 1020.59 1020.63 1020.63 1020.67 1020.67 1020.75 1020.87 1020.91 1020.99 1020.99 1020.91
1017.95 1018.27 1018.59 1018.79 1018.47 1018.51 1018.75 1019.07 1019.31 1019.43 1019.43 1019.27 1019.15 1019.19 1019.19 1019.19 1019.23 1019.27 1019.43 1019.59 1019.83 1020.23 1020.71 1021.19 1021.99 1022.99 1022.67 1022.35 1022.03 1021.79 1021.59 1021.03 1020.63 1020.71 1020.79 1020.79 1020.75 1020.75 1020.75 1020.79 1020.91 1021.03
1018.47 1018.55 1018.87 1019.23 1019.47 1019.35 1019.27 1019.23 1019.63 1019.99 1019.99 1019.95 1019.87 1019.71 1019.59 1019.55 1019.55 1019.63 1019.83 1020.07 1020.35 1020.71 1021.11 1021.51 1022.19 1023.19 1022.91 1022.63 1022.23 1022.03 1021.83 1021.51 1020.59 1020.63 1020.75 1020.83 1020.87 1020.83 1020.63 1020.55 1020.67 1020.95
1019.15 1019.27 1019.43 1019.71 1019.99 1020.03 1019.87 1019.67 1020.03 1020.67 1020.71 1020.47 1020.23 1020.07 1020.11 1020.19 1020.15 1020.19 1020.31 1020.51 1020.79 1021.11 1021.59 1022.19 1022.71 1023.39 1023.07 1022.75 1022.51 1022.27 1021.95 1021.75 1020.87 1020.83 1020.83 1020.83 1020.95 1020.95 1021.07 1021.11 1021.19 1021.19
1019.75 1019.95 1020.19 1020.35 1020.43 1020.63 1020.55 1020.39 1020.55 1020.95 1021.19 1020.95 1020.83 1020.99 1020.67 1020.59 1020.63 1020.67 1020.79 1020.87 1021.11 1021.43 1021.91 1022.51 1023.39 1023.71 1023.19 1022.75 1022.47 1022.27 1022.07 1021.75 1020.95 1021.03 1020.87 1020.95 1021.03 1021.11 1021.19 1021.19 1021.23 1021.23
1020.15 1020.35 1020.51 1020.67 1020.79 1020.91 1020.87 1020.87 1021.07 1021.27 1021.43 1021.35 1021.11 1021.15 1020.95 1020.91 1021.07 1021.07 1021.11 1021.19 1021.31 1021.63 1021.95 1022.43 1023.31 1023.63 1023.23 1022.83 1022.47 1022.15 1021.83 1021.23 1020.87 1020.95 1020.95 1020.95 1021.07 1021.19 1021.15 1021.11 1021.15 1021.23
1020.59 1020.63 1020.79 1020.83 1020.95 1020.87 1020.95 1021.19 1021.31 1021.35 1021.27 1021.19 1021.23 1021.35 1021.51 1021.55 1021.51 1021.43 1021.47 1021.55 1021.63 1021.75 1021.95 1022.43 1023.03 1023.71 1023.47 1023.07 1022.67 1022.31 1021.55 1020.91 1021.07 1020.79 1020.99 1021.11 1021.19 1021.27 1021.11 1021.23 1021.31 1021.35
1021.15 1021.03 1021.11 1021.11 1021.15 1021.15 1021.31 1021.51 1021.47 1021.39 1021.43 1021.31 1021.07 1021.19 1021.47 1021.71 1021.83 1022.07 1022.15 1022.31 1022.35 1022.19 1022.07 1022.27 1022.99 1023.79 1023.71 1023.39 1023.07 1022.75 1022.15 1021.43 1021.11 1021.03 1021.27 1021.27 1021.23 1021.39 1021.19 1021.15 1021.71 1022.15
1021.23 1021.23 1021.27 1021.31 1021.47 1021.71 1021.83 1021.83 1021.83 1021.75 1021.63 1021.51 1021.43 1021.39 1021.55 1021.59 1021.83 1022.23 1022.43 1022.67 1022.79 1022.87 1022.91 1022.43 1022.79 1023.55 1023.95 1023.75 1023.47 1023.19 1022.63 1021.67 1021.39 1021.23 1021.39 1021.51 1021.47 1021.35 1021.39 1021.19 1021.59 1022.35
1021.79 1021.87 1021.87 1021.79 1021.83 1021.99 1022.23 1022.47 1022.39 1022.27 1022.11 1021.95 1021.99 1021.95 1021.87 1021.95 1022.11 1022.27 1022.51 1022.79 1022.83 1022.87 1022.99 1022.83 1022.83 1023.23 1024.07 1024.19 1023.99 1023.67 1023.43 1022.59 1021.75 1021.71 1021.75 1021.95 1021.79 1021.67 1021.55 1021.39 1021.43 1021.99
Thickness
5623 5632 5639 5640 5640 5638 5635 5634 5633 5631 5630 5631 5632 5631 5632 5632 5631 5631 5631 5630 5630 5630 5630 5629 5628 5628 5628 5627 5627 5627 5627 5626 5625 5625 5623 5622 5622 5621 5620 5620 5620 5620
5628 5635 5640 5640 5639 5636 5634 5633 5631 5630 5629 5629 5630 5630 5630 5630 5629 5629 5629 5628 5628 5627 5627 5627 5627 5627 5627 5626 5626 5626 5626 5624 5623 5623 5622 5620 5620 5620 5619 5618 5618 5617
5631 5636 5640 5639 5637 5634 5632 5631 5630 5628 5627 5627 5628 5628 5627 5627 5626 5626 5626 5627 5627 5626 5626 5625 5626 5626 5626 5626 5625 5625 5625 5623 5622 5622 5621 5620 5620 5620 5618 5618 5617 5616
5631 5636 5638 5637 5635 5632 5630 5629 5627 5626 5625 5625 5625 5625 5624 5623 5624 5624 5624 5625 5626 5625 5625 5624 5625 5625 5625 5625 5624 5623 5623 5622 5622 5622 5621 5621 5620 5619 5618 5617 5617 5616
5633 5636 5637 5635 5633 5630 5628 5627 5625 5625 5624 5623 5623 5623 5623 5622 5622 5623 5622 5623 5623 5623 5623 5623 5624 5624 5624 5624 5623 5622 5622 5621 5622 5621 5620 5620 5620 5619 5618 5617 5616 5615
5635 5635 5634 5633 5631 5628 5626 5625 5624 5624 5623 5623 5623 5622 5622 5622 5622 5622 5621 5621 5622 5622 5622 5622 5623 5623 5623 5622 5622 5621 5621 5621 5621 5620 5620 5619 5619 5618 5617 5616 5615 5614
5632 5631 5630 5630 5627 5625 5624 5624 5623 5623 5622 5622 5622 5620 5620 5620 5620 5621 5620 5620 5620 5620 5621 5621 5621 5621 5622 5621 5621 5620 5620 5620 5620 5620 5619 5618 5617 5617 5616 5616 5615 5614
5629 5628 5627 5625 5623 5622 5622 5622 5621 5621 5620 5620 5619 5618 5618 5618 5618 5618 5618 5619 5619 5619 5620 5620 5619 5620 5620 5620 5619 5618 5618 5618 5619 5618 5617 5617 5615 5614 5615 5615 5615 5614
5626 5626 5624 5622 5621 5620 5620 5620 5620 5619 5618 5617 5616 5616 5616 5616 5616 5615 5616 5617 5617 5617 5617 5617 5617 5618 5618 5617 5617 5616 5616 5616 5616 5616 5615 5614 5614 5613 5615 5615 5613 5613
5622 5622 5620 5618 5617 5617 5617 5618 5617 5616 5616 5615 5614 5613 5613 5613 5613 5613 5614 5614 5614 5615 5615 5615 5615 5615 5614 5615 5614 5614 5614 5613 5613 5614 5614 5614 5614 5614 5614 5614 5612 5611
5614 5615 5615 5613 5614 5615 5615 5615 5615 5615 5614 5613 5612 5611 5610 5610 5610 5610 5611 5611 5611 5613 5613 5613 5613 5613 5612 5612 5612 5612 5611 5611 5611 5612 5612 5612 5613 5613 5613 5612 5611 5610
5606 5607 5608 5608 5611 5613 5613 5614 5614 5612 5612 5611 5611 5609 5608 5607 5608 5608 5609 5609 5610 5611 5611 5610 5611 5611 5611 5610 5610 5609 5609 5608 5608 5609 5609 5609 5610 5610 5610 5610 5610 5609
5606 5605 5603 5605 5608 5610 5611 5612 5611 5610 5610 5610 5609 5608 5607 5606 5606 5606 5607 5608 5609 5609 5609 5608 5608 5607 5607 5606 5606 5606 5605 5605 5604 5604 5605 5606 5605 5607 5607 5606 5607 5606
5605 5604 5603 5602 5604 5606 5607 5608 5608 5608 5608 5607 5607 5606 5606 5606 5605 5604 5604 5605 5605 5605 5605 5604 5604 5603 5603 5602 5603 5602 5601 5601 5601 5600 5601 5601 5601 5602 5602 5602 5603 5603
5601 5600 5599 5598 5598 5599 5600 5602 5603 5604 5604 5604 5604 5604 5604 5604 5603 5602 5601 5601 5600 5600 5600 5599 5599 5598 5596 5596 5597 5598 5597 5597 5597 5597 5597 5597 5597 5598 5598 5598 5599 5599
5597 5597 5596 5595 5594 5594 5594 5596 5597 5598 5600 5600 5600 5600 5600 5600 5600 5599 5598 5597 5596 5596 5594 5593 5592 5589 5586 5587 5589 5591 5593 5594 5593 5593 5594 5593 5593 5594 5594 5594 5595 5595
5593 5592 5590 5590 5591 5590 5589 5589 5590 5590 5592 5594 5595 5595 5595 5595 5595 5594 5594 5593 5592 5590 5588 5586 5582 5578 5577 5580 5581 5583 5586 5589 5589 5589 5589 5590 5590 5589 5590 5590 5590 5591
5584 5584 5582 5582 5584 5584 5584 5583 5582 5582 5583 5584 5586 5588 5588 5589 5590 5590 5589 5588 5586 5584 5581 5578 5574 5571 5571 5574 5576 5577 5578 5582 5585 5586 5585 5586 5586 5586 5587 5587 5587 5586
5577 5578 5577 5576 5575 5576 5577 5577 5576 5573 5573 5575 5577 5579 5581 5583 5583 5584 5582 5581 5580 5577 5575 5572 5568 5566 5567 5569 5571 5573 5573 5576 5581 5582 5581 5582 5582 5582 5583 5583 5583 5582
5570 5570 5569 5569 5568 5568 5569 5570 5569 5566 5565 5568 5570 5571 5573 5574 5575 5576 5576 5574 5573 5571 5568 5566 5562 5561 5563 5565 5567 5568 5569 5572 5577 5578 5577 5578 5578 5577 5577 5577 5577 5577
5562 5563 5562 5562 5561 5560 5561 5562 5562 5560 5559 5561 5563 5563 5565 5568 5568 5569 5570 5568 5567 5565 5563 5560 5556 5555 5558 5561 5563 5565 5566 5568 5573 5573 5573 5574 5573 5572 5572 5572 5572 5573
5557 5557 5556 5555 5555 5555 5555 5556 5555 5554 5554 5556 5557 5556 5558 5561 5562 5562 5563 5563 5562 5561 5559 5556 5552 5551 5554 5557 5559 5562 5564 5567 5569 5570 5570 5569 5569 5568 5569 5569 5569 5569
5549 5551 5550 5550 5550 5551 5551 5550 5549 5550 5551 5553 5553 5553 5553 5554 5555 5556 5556 5556 5556 5556 5555 5553 5549 5547 5549 5552 5554 5557 5561 5564 5566 5566 5566 5565 5564 5564 5564 5564 5563 5562
5543 5545 5545 5545 5545 5546 5545 5544 5545 5546 5547 5548 5550 5550 5550 5549 5549 5549 5548 5548 5548 5549 5550 5550 5546 5543 5544 5546 5548 5550 5554 5559 5561 5561 5561 5560 5559 5559 5560 5559 5557 5554
5539 5539 5540 5540 5540 5540 5540 5539 5540 5541 5542 5543 5545 5545 5546 5546 5545 5543 5542 5541 5541 5542 5543 5545 5543 5540 5538 5539 5542 5543 5546 5552 5555 5555 5554 5553 5553 5553 5554 5555 5553 5547
5532 5533 5533 5535 5535 5534 5534 5533 5534 5536 5536 5538 5539 5540 5541 5540 5539 5538 5537 5536 5537 5536 5537 5539 5539 5536 5533 5532 5534 5536 5538 5543 5547 5547 5546 5546 5546 5547 5548 5548 5548 5545